Temp
-12 -12 -12 -12 -12 -12 -12 -12 -12 -12 -12 -12 -12 -13 -12 -12 -12 -12 -12 -13 -14 -14 -14 -15 -15 -15 -15 -15 -17 -17 -17 -16 -16 -15 -15 -15 -14 -14 -13 -13 -13 -13 -13 -13 -15 -14 -12
-12 -12 -12 -12 -12 -12 -12 -12 -12 -13 -13 -13 -13 -13 -13 -13 -13 -13 -13 -14 -15 -15 -15 -15 -15 -15 -16 -17 -17 -18 -18 -17 -17 -16 -16 -15 -15 -14 -14 -14 -14 -13 -14 -14 -14 -14 -13
-12 -12 -12 -12 -12 -12 -12 -13 -13 -13 -13 -13 -13 -13 -13 -13 -13 -14 -14 -15 -15 -15 -15 -15 -16 -16 -17 -18 -18 -18 -18 -18 -18 -17 -17 -16 -16 -15 -14 -14 -14 -14 -14 -14 -14 -14 -13
-12 -12 -12 -13 -13 -13 -13 -13 -13 -13 -13 -13 -13 -13 -13 -13 -14 -14 -15 -15 -15 -16 -16 -16 -16 -17 -19 -19 -18 -18 -18 -18 -18 -17 -17 -17 -16 -16 -15 -14 -14 -14 -14 -13 -13 -14 -14
-13 -13 -13 -13 -13 -13 -13 -13 -13 -13 -13 -13 -13 -13 -13 -13 -14 -15 -15 -15 -16 -16 -16 -17 -17 -18 -19 -19 -18 -18 -18 -18 -17 -17 -17 -17 -17 -16 -16 -15 -15 -15 -13 -13 -13 -14 -14
-13 -13 -13 -13 -13 -13 -13 -13 -13 -13 -13 -13 -13 -13 -14 -14 -15 -15 -15 -16 -16 -16 -17 -17 -18 -19 -19 -19 -19 -18 -20 -20 -20 -19 -17 -17 -17 -17 -16 -15 -14 -13 -13 -13 -13 -13 -14
-13 -13 -13 -13 -13 -13 -13 -13 -13 -13 -14 -13 -13 -14 -14 -15 -15 -15 -16 -16 -17 -17 -18 -18 -19 -19 -19 -19 -20 -20 -21 -21 -21 -21 -19 -18 -17 -17 -16 -15 -15 -14 -14 -14 -14 -14 -14
-13 -13 -13 -13 -14 -13 -14 -14 -14 -14 -14 -14 -14 -14 -15 -15 -15 -16 -16 -17 -17 -17 -18 -19 -20 -20 -20 -19 -20 -21 -22 -22 -22 -22 -22 -20 -17 -17 -17 -16 -16 -15 -14 -15 -15 -14 -14
-14 -14 -14 -14 -14 -14 -14 -14 -14 -14 -14 -14 -14 -15 -15 -16 -16 -16 -17 -17 -18 -18 -19 -19 -20 -20 -20 -20 -21 -22 -22 -22 -23 -23 -22 -21 -18 -18 -17 -17 -16 -16 -15 -15 -15 -15 -15
-14 -14 -14 -14 -14 -14 -14 -15 -15 -15 -14 -14 -15 -15 -15 -16 -16 -17 -17 -18 -18 -19 -19 -19 -20 -20 -20 -21 -22 -22 -23 -23 -23 -24 -24 -22 -22 -19 -18 -17 -17 -16 -16 -16 -16 -16 -15
-15 -15 -15 -15 -15 -15 -15 -15 -15 -15 -15 -15 -15 -15 -16 -16 -16 -17 -17 -18 -19 -19 -20 -20 -20 -21 -21 -21 -22 -24 -24 -23 -24 -24 -24 -22 -22 -21 -18 -17 -17 -16 -17 -17 -16 -16 -16
-15 -15 -15 -16 -16 -15 -15 -16 -15 -15 -15 -15 -15 -16 -16 -17 -17 -17 -18 -19 -19 -20 -20 -20 -21 -21 -22 -22 -22 -23 -24 -24 -24 -24 -24 -23 -23 -22 -19 -19 -18 -18 -18 -18 -18 -18 -16
-16 -16 -16 -16 -16 -16 -16 -16 -15 -15 -15 -15 -16 -16 -16 -17 -17 -18 -18 -19 -20 -20 -20 -20 -21 -22 -22 -23 -24 -24 -24 -24 -24 -24 -24 -24 -23 -22 -21 -20 -19 -19 -19 -19 -19 -19 -15
-16 -16 -16 -16 -16 -16 -16 -16 -16 -15 -15 -16 -16 -16 -17 -17 -17 -18 -19 -19 -20 -20 -20 -21 -22 -22 -23 -23 -24 -24 -25 -24 -24 -24 -24 -24 -23 -22 -21 -21 -19 -18 -19 -18 -18 -15 -15
-16 -16 -16 -16 -16 -16 -16 -16 -16 -16 -16 -16 -16 -17 -17 -17 -18 -18 -19 -20 -20 -21 -21 -22 -23 -24 -25 -25 -25 -25 -25 -25 -24 -24 -24 -23 -23 -22 -22 -21 -21 -20 -20 -18 -17 -17 -17
-16 -17 -17 -16 -16 -16 -16 -16 -16 -16 -16 -16 -17 -17 -17 -17 -18 -19 -19 -20 -21 -22 -23 -26 -27 -27 -27 -27 -27 -26 -26 -24 -24 -23 -24 -23 -23 -22 -22 -22 -22 -21 -19 -19 -18 -18 -17
-16 -16 -17 -17 -17 -17 -17 -16 -16 -16 -16 -17 -17 -17 -17 -17 -18 -19 -20 -20 -21 -24 -27 -29 -30 -30 -30 -28 -28 -27 -26 -25 -24 -24 -24 -23 -23 -23 -22 -22 -22 -21 -21 -20 -18 -18 -17
-17 -17 -17 -17 -17 -17 -17 -17 -16 -17 -17 -17 -17 -17 -17 -18 -18 -19 -19 -20 -21 -26 -29 -31 -32 -32 -32 -31 -29 -28 -27 -26 -25 -24 -24 -23 -23 -23 -22 -22 -21 -21 -19 -19 -18 -17 -16
-17 -17 -17 -17 -17 -17 -17 -16 -16 -17 -17 -17 -17 -17 -17 -18 -18 -19 -20 -22 -25 -29 -31 -33 -33 -33 -33 -32 -31 -29 -27 -27 -25 -24 -24 -23 -23 -24 -23 -23 -22 -22 -21 -20 -18 -18 -18
-16 -17 -17 -17 -17 -17 -17 -17 -17 -17 -17 -17 -17 -17 -18 -18 -19 -20 -20 -22 -28 -32 -33 -34 -34 -34 -34 -33 -32 -29 -28 -27 -26 -25 -23 -24 -23 -24 -23 -22 -21 -21 -20 -19 -18 -18 -17
-17 -17 -17 -17 -17 -17 -17 -17 -17 -17 -17 -18 -17 -18 -18 -19 -19 -20 -22 -26 -30 -32 -33 -34 -34 -34 -34 -33 -32 -30 -28 -28 -26 -25 -24 -23 -23 -23 -23 -23 -22 -21 -20 -19 -18 -17 -17
-17 -17 -18 -18 -18 -18 -17 -17 -18 -17 -18 -18 -18 -18 -19 -19 -20 -21 -23 -27 -31 -33 -34 -34 -34 -34 -34 -34 -32 -30 -28 -28 -26 -25 -24 -23 -23 -23 -23 -23 -22 -21 -20 -20 -19 -19 -19
-17 -17 -18 -18 -18 -18 -18 -18 -18 -18 -18 -18 -18 -18 -19 -20 -20 -22 -25 -30 -33 -34 -34 -34 -34 -33 -33 -34 -32 -30 -28 -27 -26 -25 -25 -23 -23 -23 -23 -22 -22 -22 -21 -20 -19 -19 -19
-17 -18 -18 -18 -18 -18 -18 -18 -18 -18 -18 -18 -18 -19 -20 -20 -21 -23 -28 -32 -34 -34 -34 -34 -33 -33 -33 -33 -31 -29 -28 -27 -26 -25 -24 -23 -23 -23 -22 -22 -22 -21 -21 -21 -20 -20 -20
-18 -18 -18 -18 -18 -18 -18 -18 -18 -18 -18 -18 -19 -19 -20 -21 -22 -24 -29 -32 -33 -34 -33 -33 -32 -32 -32 -32 -30 -29 -28 -27 -26 -24 -25 -23 -23 -22 -22 -21 -21 -21 -21 -21 -21 -21 -20
-18 -18 -19 -18 -18 -18 -18 -18 -18 -18 -18 -19 -19 -20 -20 -21 -22 -25 -29 -32 -33 -33 -33 -33 -32 -31 -31 -31 -30 -29 -28 -28 -26 -25 -25 -24 -23 -22 -22 -21 -21 -21 -21 -21 -21 -21 -21
-18 -19 -19 -18 -18 -18 -18 -19 -19 -19 -19 -19 -19 -20 -21 -21 -22 -25 -29 -31 -32 -33 -32 -31 -31 -31 -30 -30 -29 -28 -28 -27 -26 -26 -25 -24 -23 -23 -23 -22 -22 -21 -21 -21 -21 -21 -21
-19 -19 -18 -18 -18 -18 -19 -19 -19 -19 -19 -19 -20 -20 -21 -21 -23 -25 -29 -31 -32 -32 -32 -32 -31 -30 -30 -29 -29 -28 -28 -28 -27 -25 -25 -24 -23 -23 -22 -21 -22 -21 -21 -21 -21 -20 -21
-19 -19 -19 -19 -18 -19 -19 -19 -19 -19 -20 -20 -20 -20 -21 -21 -23 -25 -29 -31 -32 -32 -32 -31 -31 -30 -30 -30 -29 -29 -28 -28 -27 -26 -25 -25 -24 -23 -22 -22 -22 -21 -20 -21 -21 -21 -21
Height
5773 5772 5771 5770 5769 5768 5766 5764 5762 5759 5757 5754 5751 5747 5744 5741 5737 5733 5729 5725 5721 5717 5712 5707 5702 5698 5694 5689 5679 5676 5676 5680 5684 5687 5688 5693 5697 5700 5705 5710 5714 5717 5724 5729 5734 5739 5748
5770 5769 5768 5767 5765 5764 5762 5760 5758 5754 5751 5748 5745 5740 5737 5734 5729 5725 5720 5717 5712 5707 5702 5694 5688 5681 5675 5669 5662 5661 5660 5662 5665 5670 5674 5679 5685 5688 5693 5698 5702 5709 5714 5720 5726 5732 5737
5767 5766 5764 5763 5762 5760 5758 5756 5753 5749 5746 5742 5738 5734 5730 5726 5721 5716 5712 5707 5701 5695 5689 5681 5673 5664 5657 5649 5647 5646 5647 5645 5646 5653 5658 5661 5667 5673 5682 5688 5693 5698 5704 5710 5715 5722 5726
5764 5763 5761 5760 5758 5756 5754 5751 5748 5744 5740 5735 5731 5728 5723 5718 5713 5707 5702 5697 5690 5683 5675 5666 5657 5649 5641 5637 5632 5629 5629 5628 5629 5636 5643 5644 5650 5658 5667 5676 5681 5687 5694 5701 5711 5713 5717
5760 5759 5758 5756 5754 5751 5748 5745 5742 5739 5734 5729 5724 5720 5715 5710 5704 5698 5692 5686 5679 5671 5662 5652 5643 5635 5629 5624 5620 5612 5611 5609 5610 5616 5625 5625 5632 5646 5653 5662 5668 5675 5687 5695 5702 5705 5711
5756 5755 5754 5752 5750 5747 5743 5740 5736 5732 5727 5722 5717 5712 5707 5701 5696 5689 5682 5675 5668 5658 5648 5638 5629 5625 5616 5611 5604 5599 5592 5589 5586 5591 5603 5610 5618 5629 5638 5647 5659 5670 5678 5683 5691 5698 5703
5753 5751 5749 5747 5745 5742 5738 5734 5730 5725 5720 5714 5710 5704 5698 5692 5686 5681 5674 5665 5658 5650 5634 5626 5616 5612 5606 5600 5589 5586 5579 5577 5573 5573 5579 5590 5601 5617 5639 5648 5651 5661 5669 5678 5686 5692 5696
5748 5747 5745 5742 5740 5736 5732 5728 5724 5718 5713 5707 5702 5695 5689 5682 5676 5670 5663 5655 5645 5637 5632 5614 5607 5601 5594 5588 5581 5575 5571 5568 5563 5562 5565 5570 5589 5614 5619 5627 5637 5648 5659 5669 5677 5684 5690
5744 5743 5740 5738 5734 5730 5726 5721 5717 5712 5706 5700 5694 5688 5681 5674 5666 5658 5651 5642 5632 5623 5615 5606 5597 5589 5583 5577 5571 5566 5563 5560 5557 5554 5556 5562 5585 5590 5602 5614 5625 5637 5648 5659 5669 5674 5680
5740 5738 5735 5732 5729 5725 5720 5716 5710 5705 5700 5694 5688 5680 5673 5665 5658 5648 5639 5630 5619 5610 5602 5594 5587 5580 5574 5568 5562 5558 5555 5554 5552 5550 5548 5553 5566 5576 5589 5603 5616 5627 5640 5649 5657 5664 5672
5735 5733 5730 5727 5724 5720 5715 5710 5705 5699 5693 5686 5680 5673 5665 5655 5647 5638 5629 5618 5608 5599 5588 5584 5575 5568 5563 5560 5556 5552 5549 5546 5547 5546 5545 5551 5559 5567 5581 5599 5609 5620 5630 5640 5648 5654 5660
5730 5728 5725 5722 5718 5714 5709 5704 5699 5693 5686 5679 5672 5665 5656 5648 5637 5627 5617 5607 5598 5589 5578 5571 5565 5559 5553 5549 5545 5544 5543 5540 5540 5541 5541 5544 5553 5562 5577 5586 5598 5610 5620 5629 5637 5644 5649
5724 5722 5719 5716 5712 5708 5703 5697 5692 5686 5680 5673 5665 5657 5648 5640 5630 5617 5606 5595 5586 5579 5566 5561 5554 5545 5541 5538 5537 5533 5536 5534 5534 5536 5538 5540 5546 5558 5565 5577 5585 5596 5607 5617 5625 5632 5646
5718 5716 5713 5710 5706 5702 5696 5691 5687 5680 5673 5666 5658 5649 5640 5631 5620 5608 5596 5583 5571 5559 5551 5542 5534 5530 5524 5524 5524 5524 5527 5527 5527 5530 5534 5535 5541 5549 5558 5568 5582 5594 5603 5610 5620 5633 5642
5713 5710 5707 5704 5701 5696 5691 5686 5680 5675 5667 5660 5651 5642 5632 5622 5610 5598 5584 5570 5556 5542 5531 5521 5516 5508 5506 5507 5510 5513 5518 5521 5522 5525 5529 5531 5537 5546 5554 5566 5575 5585 5591 5612 5624 5629 5633
5707 5704 5701 5698 5695 5690 5686 5681 5676 5669 5661 5653 5644 5635 5625 5615 5603 5589 5574 5557 5537 5520 5508 5497 5490 5487 5485 5492 5496 5501 5508 5511 5513 5517 5522 5528 5534 5543 5553 5560 5568 5579 5598 5602 5610 5618 5627
5702 5699 5696 5693 5689 5685 5681 5676 5670 5664 5656 5647 5638 5628 5618 5607 5594 5577 5560 5543 5524 5503 5491 5483 5476 5472 5472 5476 5483 5489 5496 5501 5506 5509 5515 5522 5530 5538 5544 5550 5562 5572 5582 5597 5609 5616 5623
5697 5694 5691 5688 5684 5681 5676 5672 5666 5658 5650 5641 5632 5622 5611 5597 5583 5566 5549 5528 5506 5489 5477 5469 5465 5461 5461 5464 5470 5477 5485 5492 5499 5503 5510 5516 5525 5532 5542 5552 5563 5572 5585 5597 5602 5614 5622
5692 5689 5686 5683 5680 5676 5672 5666 5660 5653 5644 5635 5625 5614 5602 5589 5573 5553 5532 5510 5491 5479 5470 5463 5459 5456 5454 5458 5461 5466 5475 5484 5493 5498 5504 5511 5520 5528 5537 5546 5555 5563 5576 5590 5603 5609 5616
5686 5683 5680 5677 5674 5670 5666 5660 5654 5647 5639 5630 5618 5606 5593 5578 5560 5541 5522 5503 5485 5475 5468 5462 5457 5453 5449 5451 5452 5459 5467 5477 5487 5495 5497 5507 5516 5524 5534 5542 5553 5563 5573 5586 5597 5606 5615
5681 5678 5676 5673 5669 5666 5662 5656 5649 5642 5633 5624 5611 5601 5587 5570 5552 5531 5509 5490 5479 5473 5469 5463 5458 5450 5445 5445 5445 5451 5460 5471 5483 5490 5496 5505 5513 5523 5531 5541 5550 5562 5573 5584 5594 5607 5610
5677 5674 5671 5668 5665 5662 5657 5650 5644 5636 5628 5619 5607 5594 5578 5562 5544 5526 5506 5488 5478 5473 5464 5461 5455 5450 5445 5441 5440 5446 5455 5467 5479 5489 5494 5502 5511 5520 5530 5539 5550 5561 5572 5580 5590 5597 5605
5672 5668 5665 5664 5661 5658 5652 5646 5639 5632 5623 5613 5600 5588 5574 5558 5539 5520 5499 5483 5474 5469 5464 5456 5452 5449 5443 5437 5434 5441 5455 5466 5477 5487 5494 5502 5510 5520 5530 5538 5548 5559 5567 5575 5584 5593 5600
5666 5664 5661 5660 5657 5653 5649 5642 5635 5627 5620 5608 5597 5584 5570 5553 5536 5519 5500 5489 5479 5470 5464 5459 5455 5447 5440 5433 5433 5443 5457 5468 5478 5488 5495 5503 5511 5520 5530 5538 5547 5554 5563 5573 5582 5590 5598
5661 5660 5657 5655 5654 5650 5644 5639 5631 5623 5616 5606 5595 5583 5569 5553 5536 5519 5505 5496 5488 5476 5470 5464 5459 5451 5445 5440 5441 5450 5462 5473 5481 5489 5499 5504 5513 5521 5526 5536 5545 5553 5561 5570 5577 5587 5595
5657 5655 5652 5651 5649 5646 5641 5635 5628 5620 5613 5603 5593 5581 5569 5555 5538 5520 5507 5498 5490 5480 5476 5471 5467 5460 5456 5453 5452 5456 5467 5475 5483 5491 5501 5506 5515 5522 5525 5533 5538 5547 5558 5568 5577 5584 5590
5652 5651 5648 5647 5646 5642 5638 5632 5625 5618 5611 5602 5591 5581 5568 5555 5539 5523 5510 5502 5495 5486 5481 5478 5474 5470 5467 5466 5464 5467 5474 5481 5489 5497 5504 5509 5516 5522 5524 5532 5537 5543 5554 5565 5573 5581 5586
5647 5647 5645 5643 5642 5639 5634 5629 5622 5616 5609 5601 5591 5581 5569 5555 5540 5526 5513 5506 5501 5493 5489 5486 5486 5479 5477 5476 5476 5477 5482 5487 5494 5500 5507 5511 5517 5522 5525 5532 5538 5543 5550 5561 5570 5574 5582
5643 5642 5641 5640 5638 5635 5631 5627 5620 5614 5607 5599 5591 5581 5569 5558 5543 5530 5518 5510 5505 5499 5495 5493 5491 5489 5486 5485 5485 5486 5488 5493 5498 5503 5510 5515 5520 5523 5528 5531 5537 5542 5547 5556 5564 5570 5577
Wind_Speed
13 12 10 10 12 14 17 19 21 21 23 26 28 30 33 36 40 41 42 42 40 40 43 46 51 53 54 54 56 60 58 56 53 55 55 52 51 49 48 48 47 43 41 39 39 37 44
13 12 11 11 13 15 18 20 22 23 24 27 30 34 36 39 42 41 41 39 40 43 48 52 56 56 57 56 55 53 52 51 52 55 59 55 54 53 52 52 52 48 42 41 40 39 40
13 11 11 12 14 16 19 21 24 25 27 29 33 37 38 42 42 40 40 41 43 46 52 56 56 57 56 53 50 47 46 49 50 51 57 57 56 57 53 54 53 52 45 43 44 43 41
13 12 11 12 14 16 19 23 27 30 31 33 36 38 40 43 40 40 41 43 45 49 55 56 57 55 51 47 47 46 46 50 52 51 52 59 59 59 56 55 56 54 49 47 43 44 44
13 13 13 16 15 18 21 24 29 33 33 35 38 39 42 43 40 41 43 46 48 53 55 56 56 53 46 44 45 48 50 55 60 58 55 61 62 60 60 57 59 57 52 46 44 45 44
14 15 16 17 20 24 27 31 33 34 35 37 39 42 43 43 40 42 45 48 52 55 54 55 53 47 44 43 44 41 42 42 47 57 64 61 63 63 63 61 58 56 53 51 49 47 50
17 19 18 20 24 28 28 33 37 37 35 38 40 42 43 42 43 46 47 50 54 53 52 51 50 43 42 41 37 36 36 35 34 40 54 65 65 62 58 55 59 57 54 50 48 47 49
19 21 22 23 26 28 31 35 38 37 36 39 40 42 41 42 44 47 50 54 56 55 47 47 44 44 40 38 33 32 33 30 26 30 42 62 63 55 59 60 60 60 55 51 49 48 50
22 24 25 26 25 27 29 33 38 39 37 39 41 41 40 41 45 48 52 56 56 54 46 42 45 38 38 37 33 31 29 27 23 26 34 57 60 62 61 62 61 61 58 51 50 49 50
23 26 27 26 31 32 35 39 41 37 37 39 42 40 40 43 46 50 55 57 56 50 47 50 42 39 37 33 31 28 29 27 22 23 25 47 58 62 63 62 60 60 57 54 50 51 51
25 26 28 30 33 34 36 38 38 35 37 40 42 41 42 45 49 53 56 58 55 50 53 46 44 40 36 34 29 24 25 26 17 21 23 40 55 58 63 59 60 59 56 53 51 50 52
26 25 27 30 34 35 37 40 36 36 37 40 39 39 42 46 51 55 58 57 55 53 53 50 45 41 39 34 30 24 22 26 18 23 22 34 42 54 58 58 59 58 53 50 47 47 53
27 26 28 29 32 35 39 33 33 36 38 39 39 40 43 49 52 57 59 59 58 55 55 52 47 45 41 37 28 31 23 24 23 23 22 30 44 53 55 54 57 58 51 51 47 46 55
27 26 27 28 31 36 32 32 34 36 38 39 40 42 46 52 57 61 61 62 63 63 58 56 53 47 44 37 30 29 25 25 23 22 25 30 40 49 55 50 53 56 53 53 55 55 57
25 26 26 28 31 31 32 33 34 36 38 40 41 43 49 56 61 63 65 66 67 68 65 59 52 46 43 36 32 28 21 21 21 19 28 29 37 43 47 47 49 42 50 46 49 52 54
25 25 26 28 30 29 31 34 35 36 37 40 42 47 52 58 63 65 68 71 72 70 62 50 46 44 40 29 29 27 26 26 23 25 26 29 32 40 42 41 39 45 40 48 51 52 52
27 26 25 27 29 29 32 33 35 37 38 40 44 50 55 60 66 70 72 74 74 66 52 39 37 36 35 28 27 28 29 29 29 28 23 29 30 34 40 44 40 46 42 40 45 49 53
27 26 25 27 27 29 31 33 35 37 39 42 45 51 58 65 68 73 77 80 79 59 40 32 25 24 24 22 23 30 32 32 27 23 25 27 28 32 36 36 38 37 43 42 49 50 52
26 25 24 26 27 29 31 33 36 38 39 43 48 56 62 67 71 78 81 78 66 45 31 25 22 18 22 24 20 30 32 30 32 15 28 25 28 28 30 35 37 39 40 40 41 48 50
26 24 23 24 25 28 30 33 36 38 39 44 51 58 64 70 76 80 82 77 53 35 28 24 21 21 17 18 24 28 34 30 25 22 31 27 28 32 34 36 36 38 37 41 41 46 49
25 25 23 23 24 27 30 34 37 38 41 47 54 59 65 71 77 80 80 68 45 35 24 23 23 21 24 13 23 24 36 29 30 26 32 32 27 33 34 33 32 34 34 40 40 44 47
25 25 22 23 24 28 32 35 38 39 43 48 55 61 67 73 77 78 74 58 42 33 37 30 23 23 23 22 11 26 37 31 36 27 23 36 26 32 35 35 32 32 32 36 38 42 42
26 23 21 23 25 28 32 35 37 39 43 50 57 62 67 72 75 75 70 51 44 40 34 32 28 27 27 20 8 24 34 32 35 31 21 31 32 28 37 36 35 33 37 38 39 40 39
25 23 20 22 25 27 32 34 36 39 44 51 57 61 66 71 73 70 57 43 43 40 33 31 29 36 28 11 9 25 31 28 36 35 26 30 28 27 33 34 38 39 38 40 37 37 30
24 21 18 20 23 28 31 34 36 39 44 50 55 59 64 68 68 65 50 39 39 33 29 30 34 29 21 19 32 28 26 24 33 36 22 29 33 24 41 35 34 39 41 44 42 39 38
23 20 16 19 22 27 31 34 35 38 43 49 54 58 62 65 67 64 49 42 42 35 21 24 24 23 19 19 31 31 24 22 30 31 19 30 27 29 32 30 28 43 43 45 42 39 39
21 17 16 18 22 27 31 34 35 37 42 48 53 56 60 63 65 61 49 41 41 34 22 26 17 21 17 23 29 30 26 19 20 22 24 29 31 25 29 34 34 46 45 47 46 43 39
18 16 15 17 22 26 30 32 34 37 41 46 51 54 58 62 62 59 48 38 36 34 19 18 20 32 18 14 24 27 20 15 16 23 27 25 29 24 35 34 30 28 50 48 48 44 45
16 15 15 17 22 26 29 31 33 36 40 44 48 52 56 59 60 57 46 36 35 34 16 18 27 31 33 28 22 22 20 15 16 23 25 22 21 21 26 39 38 27 36 43 45 48 45
Wind_Direction
302 302 305 316 324 324 322 321 322 325 329 327 326 327 325 322 321 317 314 311 311 308 304 301 298 296 294 288 281 276 273 266 256 250 249 246 241 238 235 233 234 233 237 232 228 235 223
302 306 312 321 322 322 321 321 320 326 331 331 331 330 327 323 321 318 313 312 313 310 306 305 304 302 298 288 281 276 270 266 258 251 246 244 240 237 231 228 229 230 228 230 230 232 221
300 303 314 322 321 322 323 325 325 330 331 330 332 332 327 325 322 317 314 315 314 313 312 310 308 306 297 290 285 277 272 267 261 249 243 242 238 235 232 227 226 227 222 224 222 226 213
297 300 308 312 318 323 327 332 331 331 334 333 332 330 327 326 321 317 316 317 315 316 316 313 312 304 298 293 289 284 276 266 260 251 243 240 237 233 231 226 224 226 222 219 222 223 208
293 297 306 307 314 323 328 330 328 327 331 330 330 329 327 326 321 319 319 318 319 319 318 316 311 304 299 295 294 289 282 271 260 249 241 238 235 230 231 227 224 223 222 218 221 219 220
291 294 299 302 308 317 321 320 319 325 329 328 330 328 328 325 321 321 320 321 322 323 321 316 310 306 301 302 298 295 286 279 264 246 235 234 233 229 227 225 223 222 220 216 213 219 219
294 292 291 297 306 315 319 319 319 320 328 329 329 327 327 323 323 325 324 323 325 326 319 316 308 306 305 306 302 300 291 293 268 245 229 228 229 228 227 227 225 223 219 219 216 218 221
296 288 291 299 307 311 313 316 320 322 328 329 328 327 325 324 326 327 326 326 327 326 329 310 307 310 309 311 310 301 300 301 280 250 228 219 221 221 221 223 223 222 218 217 216 216 219
301 296 299 303 307 310 313 316 318 322 326 328 326 327 325 326 327 328 328 329 329 328 323 313 313 313 316 315 311 302 298 302 289 269 236 217 211 214 216 219 221 219 216 214 216 219 216
305 302 303 304 308 310 311 315 317 319 326 328 328 328 328 327 329 329 330 330 329 327 320 318 316 316 313 311 305 302 292 302 287 265 248 217 211 210 211 215 218 218 216 214 212 219 218
309 307 312 314 314 309 313 315 318 322 327 328 328 328 329 329 330 329 329 329 328 324 318 319 314 311 309 307 302 290 295 293 283 255 252 217 210 211 208 211 214 216 215 214 212 217 219
314 312 314 315 311 312 312 316 318 323 328 326 328 329 329 330 329 329 329 328 327 322 317 316 312 306 301 297 293 285 283 287 273 253 241 217 211 215 205 211 211 214 214 210 213 217 219
311 312 315 312 313 312 313 318 320 325 326 328 327 329 331 332 331 331 329 327 323 321 317 315 308 298 292 286 271 274 264 275 263 246 235 218 211 210 211 208 212 211 210 206 206 209 210
308 310 313 310 312 313 317 318 324 326 326 328 329 331 333 334 333 331 330 327 322 319 316 310 302 293 282 275 259 253 251 263 259 239 231 219 214 206 211 210 211 211 213 209 208 206 210
308 312 309 309 314 318 318 320 325 325 329 330 330 332 335 335 334 333 331 327 322 319 314 308 300 284 274 264 250 241 230 242 257 241 229 224 217 210 213 212 210 203 212 207 209 213 213
303 308 307 309 314 319 318 323 325 328 330 331 330 335 336 335 334 334 332 329 323 320 317 306 295 287 279 260 240 231 218 216 241 233 222 225 216 211 213 207 213 211 210 203 204 210 214
301 304 303 310 315 318 320 324 326 329 330 331 334 337 337 335 336 337 335 330 327 325 319 306 291 284 280 267 228 221 210 212 214 213 214 219 215 208 207 210 206 205 201 202 206 208 213
301 304 304 309 316 317 321 326 327 328 330 333 338 337 337 338 338 339 338 336 332 332 327 322 307 287 268 269 228 211 211 212 209 204 207 211 212 207 206 211 207 209 210 208 204 203 211
305 304 306 310 316 318 325 327 327 329 332 335 340 341 342 340 341 344 341 338 337 340 343 341 336 311 277 248 246 216 205 205 208 198 199 204 201 198 190 198 200 204 199 203 204 205 212
303 306 304 310 315 320 325 327 328 330 334 339 343 344 342 343 346 345 343 342 345 354 358 4 348 339 319 258 248 213 202 197 199 196 178 199 195 192 188 196 200 200 200 194 203 206 209
304 304 305 310 316 320 326 328 329 332 338 342 346 344 345 348 348 347 345 347 351 354 3 355 356 339 324 311 239 223 201 195 187 174 165 180 198 184 181 187 193 198 196 193 200 203 212
308 304 303 310 314 320 326 329 331 335 340 344 344 347 349 351 350 349 349 353 354 358 352 358 357 0 348 334 283 213 195 193 187 191 147 170 184 183 181 182 188 188 191 188 197 204 211
305 302 302 307 313 320 326 330 332 337 342 345 347 349 352 353 352 350 354 359 359 358 357 1 359 1 348 331 295 197 187 186 191 191 139 166 176 182 184 182 182 185 187 188 194 201 206
302 301 303 308 315 321 327 332 334 339 344 346 349 352 354 354 354 355 2 10 6 0 1 6 13 360 360 360 124 171 174 178 189 192 132 153 172 179 173 185 182 188 185 190 194 199 193
305 300 300 310 317 323 329 332 337 342 347 348 351 354 356 356 357 360 5 13 15 6 8 26 21 9 27 86 108 134 157 168 187 189 146 135 169 172 184 168 184 192 188 190 195 194 199
304 294 302 309 318 325 330 333 338 344 348 350 353 355 358 358 360 2 8 13 18 22 38 28 30 43 55 88 110 120 134 146 185 193 154 147 168 170 192 155 159 187 191 192 195 198 202
295 293 298 311 320 327 332 334 340 345 349 353 355 357 359 359 3 4 8 16 20 28 61 55 51 72 87 109 111 116 124 138 171 182 166 145 181 187 197 197 202 174 188 195 196 199 197
287 291 296 311 320 327 331 334 341 345 351 354 355 358 1 2 6 6 10 16 23 32 65 56 77 84 93 103 112 112 116 124 130 159 175 147 155 156 185 194 192 160 186 194 200 203 205
284 286 296 312 319 325 332 334 342 346 351 354 356 358 2 4 8 9 12 14 21 30 75 83 70 81 84 100 117 115 114 111 116 140 169 160 155 155 150 168 176 178 174 186 198 208 213